User: anonymous   Login
Location: Unspecified
(0.0000°N, 0.0000°E)
Time: 19:06:06
(UTC+00:00)
Language:

STARLINK-35167 - Orbit

View from above orbital plane
View from above orbital plane
View from above satellite
View from above satellite

Ground track
Ground track

The orbit is defined by the following mean orbital elements,

1 65736U          26145.49533174 +.00000000 +00000-0 +50286-3 0 00008
2 65736  53.1580 336.0858 0001217  99.7763 260.3375 15.30210522    03
Epoch (UTC): 25 May 2026 11:53:16
Eccentricity: 0.0001217
inclination: 53.1580°
perigee height: 474 km
apogee height: 476 km
right ascension of ascending node: 336.0858°
argument of perigee: 99.7763°
revolutions per day: 15.30210522
mean anomaly at epoch: 260.3375°

The dashed part of the orbit path shows where the satellite is in the earth's shadow,  

DLR